Regional Weather Roundup
Issued by NWS Sioux Falls, SD

Home | Current Version | Previous Version | Graphics & Text | Print | Product List | Glossary On
Versions: 1 2 3 4 5 6 7 8 9 10 11 12 13 14 15 16 17 18 19 20 21 22 23 24 25 26 27 28 29 30 31 32 33 34 35 36 37 38 39 40 41 42 43 44 45 46 47 48 49 50
000
ASUS43 KFSD 280610
RWRFSD

WEATHER ROUNDUP FOR SE SOUTH DAKOTA/SW MINNESOTA/NW IOWA
NATIONAL WEATHER SERVICE SIOUX FALLS SD
100 AM CDT FRI AUG 28 2015

NOTE: "FAIR" INDICATES FEW OR NO CLOUDS BELOW 12,000 FEET WITH NO
SIGNIFICANT WEATHER AND OR OBSTRUCTIONS TO VISIBILITY.


SDZ038>040-050-052>070-280700-
SOUTHEAST SOUTH DAKOTA

CITY           SKY/WX    TMP DP  RH WIND       PRES   REMARKS
BROOKINGS      CLOUDY    66  63  88 E10       29.99R
CHAMBERLAIN    CLOUDY    65  65  99 E7        29.91S
6HR MIN TEMP:  65; 6HR MAX TEMP:  70; 6HR PCP:  0.23;

HURON          CLOUDY    67  64  90 SE5       29.92S
6HR MIN TEMP:  67; 6HR MAX TEMP:  75; 6HR PCP:  0.01;

MADISON        CLOUDY    64  64 100 SE13G21   29.95F
MITCHELL       CLOUDY    67  66  97 SE7       29.91S
6HR MIN TEMP:  67; 6HR MAX TEMP:  71; 6HR PCP:  0.14;

SIOUX FALLS    LGT RAIN  65  63  93 SE12      29.94F
6HR MIN TEMP:  65; 6HR MAX TEMP:  74; 6HR PCP:  2.42;

WINNER         CLOUDY    70  68  93 NE5       29.90F FOG
YANKTON        CLOUDY    64  63  94 E18G26    29.91F
$$

MNZ071-072-080-081-089-090-097-098-280700-
SOUTHWEST MINNESOTA

CITY           SKY/WX    TMP DP  RH WIND       PRES   REMARKS
FAIRMONT       CLOUDY    63  57  82 S12G18    30.03S
JACKSON        RAIN      63  63 100 S12       30.03R
LUVERNE        RAIN      64  63  94 S13G23    29.97F
MARSHALL       FAIR      66  61  82 S5        29.99R
6HR MIN TEMP:  64; 6HR MAX TEMP:  72;

MONTEVIDEO     FAIR      63  63 100 S8        29.98S
PIPESTONE      LGT RAIN  64  63  94 SE9G18    29.98R
REDWOOD FALLS  FAIR      64  61  90 S7        29.98R
TRACY          FAIR      65  63  93 SW13      29.99R
WINDOM         LGT RAIN  66  63  88 S14G23    29.99R
WORTHINGTON    CLOUDY    63  59  88 SE14G21   30.00S
$$

IAZ001>003-012>014-020>022-031-032-NEZ013-014-SDZ071-280700-
NORTHWEST IOWA

CITY           SKY/WX    TMP DP  RH WIND       PRES   REMARKS
CHEROKEE       LGT RAIN  64  64  97 CALM      30.02R
DENISON        FAIR      64  63  94 E6        29.98R
ESTHERVILLE    LGT RAIN  63  62  97 S10       30.02F
LE MARS        LGT RAIN  66  64  94 E8        29.99F
ORANGE CITY    LGT RAIN  64  63  94 E7        30.00F
SIOUX CITY     RAIN      66  63  90 E9        29.97R
6HR MIN TEMP:  66; 6HR MAX TEMP:  77; 6HR PCP:  0.24;

SPENCER        LGT RAIN  64  61  90 SE8       30.02F
6HR MIN TEMP:  64; 6HR MAX TEMP:  67; 6HR PCP:  0.63;

STORM LAKE     MOCLDY    63  63 100 SE8G14    30.02R
$$

ABBREVIATIONS USED IN REMARKS
   TC - TEMPERATURE IN CELSIUS
  WCI - WIND CHILL INDEX
   HX - HEAT INDEX
  VSB - VISIBILITY



USA.gov is the U.S. government's official web portal to all federal, state and local government web resources and services.